Weather History for Havre, MT

Change the Weather History Date:

Friday, January 31, 2014

  Actual Average Record
Temperature  
Mean Temperature 1 °F 20 °F  
Max Temperature 16 °F 30 °F 68 °F (1992)
Min Temperature -15 °F 9 °F -43 °F (1893)
Degree Days  
Heating Degree Days 64 45  
Month to date heating degree days 1235 1457  
Since 1 July heating degree days 4778 4923  
Cooling Degree Days 0 0  
Month to date cooling degree days 0 0  
Year to date cooling degree days 0 0  
Moisture  
Dew Point -3 °F    
Average Humidity 71    
Maximum Humidity 83    
Minimum Humidity 59    
Precipitation  
Precipitation T in 0.01 in 0.50 in (1911)
Month to date precipitation 0.42 0.33  
Year to date precipitation 0.42 0.33  
Snow  
Snow T in 0.20 in 5.00 in (1971)
Month to date snowfall 7.2 7.1  
Since 1 July snowfall 33.2 22.1  
Snow Depth 3.00 in    
Sea Level Pressure  
Sea Level Pressure 30.05 in    
Wind  
Wind Speed 13 mph (West)    
Max Wind Speed 28 mph    
Max Gust Speed 35 mph    
Visibility 10 miles    
Events Snow    
T = Trace of Precipitation, MM = Missing Value Source: NWS Daily Summary

Daily Weather History Graph

Daily Weather History Graph

Search for Another Location

Airport:

Trip Planner

Search our weather history database for the weather conditions in past years. The results will help you decide how hot, cold, wet, or windy it might be!

Date:

Astronomy

Jan. 31, 2014 Rise Set
Actual Time 7:49 AM MST 5:16 PM MST
Civil Twilight 7:15 AM MST 5:50 PM MST
Nautical Twilight 6:37 AM MST 6:27 PM MST
Astronomical Twilight 6:01 AM MST 7:04 PM MST
Moon 7:52 AM MST (1/31) 6:55 PM MST (1/31)
Length of Visible Light 10h 34m
Length of Day
9h 26m
New Moon, 1% of the Moon is Illuminated
Jan 31
New Moon
Feb 6
First Quarter
Feb 14
Full
Feb 22
Last Quarter
Mar 1
New

Hourly Weather History & Observations

Time (MST) Temp. Windchill Dew Point Humidity Pressure Visibility Wind Dir Wind Speed Gust Speed Precip Events Conditions
12:53 AM -9.0 °F -30.9 °F -13.0 °F 83% 30.04 in 10.0 mi SW 15.0 mph - N/A   Clear
1:53 AM -9.0 °F -29.3 °F -14.1 °F 79% 30.02 in 10.0 mi SW 12.7 mph - N/A   Clear
2:53 AM -14.1 °F -31.3 °F -18.0 °F 82% 30.02 in 10.0 mi WSW 8.1 mph - N/A   Clear
3:53 AM -13.0 °F -30.0 °F -18.0 °F 78% 29.99 in 10.0 mi WSW 8.1 mph - N/A   Clear
4:53 AM -14.1 °F -31.3 °F -18.9 °F 79% 29.98 in 10.0 mi WSW 8.1 mph - N/A   Clear
5:53 AM -9.0 °F -28.4 °F -14.1 °F 79% 29.96 in 10.0 mi SW 11.5 mph - N/A   Clear
6:53 AM -11.0 °F -27.6 °F -16.1 °F 78% 29.95 in 10.0 mi WSW 8.1 mph - N/A   Clear
7:53 AM -7.1 °F -29.1 °F -11.9 °F 79% 29.95 in 10.0 mi WSW 16.1 mph - N/A   Clear
8:53 AM -4.0 °F -24.5 °F -9.0 °F 79% 29.96 in 10.0 mi WSW 15.0 mph - N/A   Clear
9:53 AM -4.0 °F -30.0 °F -9.0 °F 79% 29.96 in 10.0 mi SW 26.5 mph 35.7 mph N/A   Clear
10:53 AM 3.9 °F -16.1 °F -2.0 °F 76% 30.00 in 10.0 mi SW 18.4 mph - N/A   Scattered Clouds
11:53 AM 9.0 °F -6.6 °F -0.0 °F 67% 30.01 in 10.0 mi SW 12.7 mph - N/A   Overcast
12:23 PM 14.0 °F -2.0 °F 3.9 °F 64% 29.83 in 10.0 mi WNW 16.1 mph - N/A   Overcast
12:53 PM 15.1 °F -0.6 °F 3.9 °F 61% 30.02 in 10.0 mi WNW 16.1 mph - N/A   Overcast
1:53 PM 16.0 °F 0.6 °F 6.1 °F 65% 30.02 in 10.0 mi West 16.1 mph - N/A   Overcast
2:53 PM 15.1 °F -2.9 °F 6.1 °F 68% 30.04 in 10.0 mi NW 21.9 mph - N/A   Overcast
3:53 PM 15.1 °F -0.1 °F 5.0 °F 64% 30.08 in 10.0 mi NW 15.0 mph - N/A   Scattered Clouds
4:53 PM 12.9 °F 1.6 °F 5.0 °F 71% 30.10 in 10.0 mi NNW 8.1 mph - N/A   Mostly Cloudy
5:37 PM 10.9 °F - 3.9 °F 73% 29.93 in 10.0 mi Calm Calm - N/A   Overcast
5:53 PM 9.0 °F -4.2 °F 3.0 °F 77% 30.14 in 10.0 mi SW 9.2 mph - N/A   Overcast
6:14 PM 10.9 °F -0.8 °F 3.9 °F 73% 29.95 in 10.0 mi West 8.1 mph - N/A   Overcast
6:53 PM 6.1 °F -7.8 °F 1.0 °F 80% 30.17 in 10.0 mi WSW 9.2 mph - N/A   Scattered Clouds
7:53 PM 6.1 °F - -0.0 °F 76% 30.18 in 10.0 mi Calm Calm - N/A   Clear
8:53 PM 5.0 °F -9.1 °F -2.0 °F 73% 30.19 in 10.0 mi West 9.2 mph - N/A   Partly Cloudy
9:21 PM 7.0 °F -10.4 °F -0.0 °F 73% 30.02 in 10.0 mi West 15.0 mph - N/A   Mostly Cloudy
9:53 PM 10.0 °F -5.2 °F 3.0 °F 73% 30.22 in 10.0 mi WNW 12.7 mph - 0.00 in Snow Light Snow
10:21 PM 9.0 °F -8.5 °F 1.9 °F 73% 30.04 in 9.0 mi WNW 16.1 mph - 0.00 in   Overcast
10:53 PM 8.1 °F -8.4 °F 1.0 °F 73% 30.22 in 10.0 mi NW 13.8 mph - 0.00 in   Overcast
11:53 PM 8.1 °F -8.4 °F 1.0 °F 73% 30.23 in 10.0 mi NW 13.8 mph - N/A   Overcast